Location: Unspecified
(0.0000°N, 0.0000°E)
Time: 14:04:31
(UTC+02:00)

GPS 2-12 Rocket1 - Visible Passes

Search period start: 28 August 2016 00:00
Search period end: 07 September 2016 00:00
Orbit: 587 x 654 km, 20.0° (Epoch: 26 August)

Date Brightness Start Highest point End Pass type
(mag) Time Alt. Az. Time Alt. Az. Time Alt. Az.
28 Aug 4.3 07:05:54 13° SW 07:09:27 33° SSE 07:13:34 10° E visible
28 Aug 3.6 20:56:22 10° W 21:00:56 54° SSW 21:03:53 21° SE visible
29 Aug 5.7 05:44:22 14° SE 05:44:22 14° SE 05:45:33 10° ESE visible
29 Aug 3.5 07:21:25 10° WSW 07:25:56 57° SSE 07:30:25 10° E visible
29 Aug 4.4 21:13:15 10° W 21:17:25 32° SSW 21:19:25 23° SSE visible
30 Aug 4.8 05:59:54 27° SE 05:59:54 27° SE 06:02:53 10° E visible
30 Aug 4.9 21:30:32 10° WSW 21:33:59 20° SSW 21:34:57 19° S visible
31 Aug 3.6 06:15:26 51° SSE 06:15:26 51° SSE 06:19:49 10° E visible
31 Aug 5.5 21:48:22 10° SW 21:50:28 13° SSW 21:50:28 13° SSW visible
01 Sep 3.0 06:30:59 63° WSW 06:31:44 90° S 06:36:24 10° ENE visible
01 Sep 5.0 20:19:46 10° WSW 20:23:18 21° SSW 20:26:53 10° SSE visible
02 Sep 3.4 06:46:31 34° WNW 06:48:10 51° NNW 06:52:42 10° NE visible
02 Sep 5.4 20:37:30 10° SW 20:39:56 14° SSW 20:42:23 10° SSE visible
03 Sep 5.9 05:25:01 15° ENE 05:25:01 15° ENE 05:25:47 10° ENE visible
03 Sep 4.3 07:02:03 18° WNW 07:04:39 30° NNW 07:08:45 10° NE visible
04 Sep 5.4 05:40:31 21° NE 05:40:31 21° NE 05:42:09 10° ENE visible
04 Sep 4.9 07:17:47 10° WNW 07:21:11 19° NNW 07:24:32 10° NNE visible
05 Sep 5.0 05:56:01 23° NNE 05:56:01 23° NNE 05:58:15 10° NE visible
06 Sep 5.0 06:11:29 20° N 06:11:29 20° N 06:14:06 10° NNE visible
